Starlink 33919

operational
NORAD ID: 63699 Int'l Des: 2025-087 Owner: SPXS Country: US Constellation: starlink
LEOCIRCULAR

About Starlink 33919

Description loading...

Live Position

Loading 3D Globe...

Upcoming Passes

Altitude History

Altitude vs Time

uPlot chart will show altitude changes over time

Two-Line Element Set

1 63699U 25087C 25352.95481108 .00018375 00000-0 63077-3 0 9998
2 63699 53.1588 234.9276 0001342 82.1125 278.0028 15.30210587 36836
Epoch: Dec 18, 2025 • Age: 24 hours

Current Status

Altitude 478.2 km
Velocity 7.63 km/s
Sub-Earth Point 41.75°N, 156.85°W
Launch Date Apr 28, 2025
Age 0.6 years
Type internet

Technical Details

Classification Payload
Mass 575.00 kg
Dry Mass 530.00 kg
Total Mass 575.00 kg
Length 0.30 m
Diameter 4.10 m
Span 29.00 m
Shape Box + pan
Manufacturer SPXS
Bus Type Starlink V2MO
Phase Status In Orbit
Owner/State SPXS/US

Large Constellations

Loading constellations...